Retour au catalogue

STARLINK-3777

ActifCommunicationsVLEO
NORAD 52294·PAYLOAD·🇺🇸 United States

Lancé Apr 21, 2022 depuis Cape Canaveral Space Force Station

Loading…

Prochains Passages (prochaines 24 heures)

TLE

FraisSource: CelesTrak SupGP

Époque: Sep 14, 2026, 22:07 UTC

1 52294C 22041AK  26257.92201389 -.00003740  00000+0 -11350-3 0  2572
2 52294  53.1577 317.8921 0001244  87.2591 184.6364 15.33544788    17

Suivez STARLINK-3777 en temps réel avec AllMySat

Download on the App Store